Location: Bailleul
(50.3375°N, 2.8513°E)
Time: 03:54:50
(UTC+00:00)

Cosmos 407 Rocket - Pass Details

Date: 19 April 2021
Orbit: 743 x 787 km, 74.0° (Epoch: 09 May)

Event Time Altitude Azimuth Distance (km) Brightness Sun altitude
Exits shadow 20:14:02 - 174° (S) 2,579 5.8 -12.7°
Reaches altitude 10° 20:14:55 10° 170° (S) 2,256 5.5 -12.8°
Maximum altitude 20:19:36 38° 104° (ESE) 1,140 3.9 -13.4°
Drops below altitude 10° 20:24:21 10° 37° (NE) 2,290 6.0 -14.0°
Sets 20:26:52 0° 30° (NNE) 3,227 6.9 -14.3°
